SCP
-0 0 0 0 0 0 1 1 1 1 1 1 1 1 1 1 1 1 1 1 0 0 0 0 0 0 0 0 0 0 0 0 0 0 0 0 0 0 0 0 0 0 0
0 0 0 0 0 0 1 1 1 1 1 1 1 1 1 1 1 1 1 1 0 0 0 0 0 0 0 0 0 0 0 0 0 0 -0 -0 -0 -0 0 0 0 0 0
0 0 0 0 0 0 0 1 1 1 1 1 1 1 1 1 1 1 0 0 0 0 0 0 0 0 0 0 0 0 0 0 0 0 -0 -0 -0 -0 0 0 0 0 0
0 0 0 0 0 0 0 0 0 0 1 1 1 1 1 1 1 0 0 0 0 0 0 0 0 0 0 0 0 0 0 0 0 0 -0 -0 -0 -0 0 0 0 0 0
0 0 0 0 0 0 0 0 0 0 0 0 0 0 0 0 0 0 0 0 0 0 0 0 0 0 0 0 0 0 0 0 0 0 0 -0 -0 0 0 0 0 0 0
0 0 0 0 0 0 0 0 0 0 0 0 0 0 0 0 0 0 0 0 0 0 0 0 0 0 0 0 0 0 0 0 0 0 0 0 0 0 0 0 0 0 0
0 0 0 0 0 0 0 0 0 0 0 0 0 0 0 0 0 0 0 0 0 0 0 0 0 0 0 0 0 0 0 0 0 0 0 0 0 0 0 0 0 0 0
0 0 0 0 0 0 0 0 0 0 0 0 0 0 0 0 0 0 0 0 0 0 0 0 0 0 0 0 0 0 0 0 0 0 0 0 0 0 0 0 0 0 0
0 0 0 0 0 0 0 0 0 0 0 0 0 0 0 0 0 0 0 0 0 0 0 0 0 0 0 0 0 0 0 0 0 0 0 0 0 0 0 0 0 0 0
0 0 0 0 0 0 0 0 0 0 0 0 0 0 0 0 0 0 0 0 0 0 0 0 0 0 0 0 0 0 0 0 0 0 0 0 0 0 0 0 0 0 0
0 0 0 0 0 0 0 0 0 0 0 0 0 0 0 0 0 0 0 0 0 0 0 0 0 0 0 0 0 -0 -0 0 0 0 0 0 0 0 0 0 0 0 0
0 0 0 0 0 0 0 0 0 0 0 0 0 0 0 0 -0 -0 0 0 0 0 0 0 0 0 0 0 -0 -0 -0 -0 0 0 0 0 0 0 0 0 0 0 0
0 0 0 0 0 0 0 0 0 0 0 0 0 0 0 0 -0 -0 -0 0 0 0 -0 0 0 0 0 0 -0 -0 -0 -0 0 0 0 0 0 0 0 0 0 0 0
0 0 0 0 0 0 0 0 0 0 0 0 0 0 0 0 -0 -0 -0 -0 0 0 -0 -0 0 0 0 0 0 0 0 0 0 0 0 0 0 1 1 0 0 1 1
0 0 0 0 0 0 0 0 0 0 0 0 0 0 0 0 0 -0 0 0 0 0 0 0 0 0 0 0 0 0 0 0 0 0 0 0 0 1 1 1 1 1 1
0 0 0 0 1 1 1 0 0 0 0 0 0 0 0 0 0 0 0 0 0 0 0 0 0 0 0 0 0 0 0 0 0 0 0 0 0 0 0 0 1 1 1
0 0 0 1 1 1 1 1 0 0 0 0 0 0 0 0 0 0 0 0 0 0 0 0 0 0 0 0 0 0 0 0 0 0 0 0 0 0 0 0 0 0 0
1 1 1 1 1 1 1 1 0 0 0 0 0 0 0 0 0 0 0 0 0 0 0 0 0 0 0 0 0 0 0 0 0 0 0 0 0 0 0 0 0 0 0
1 1 1 1 1 1 1 1 1 0 0 0 0 0 0 0 0 0 0 0 0 0 0 0 0 0 0 0 0 0 0 0 0 0 0 0 0 0 0 0 0 0 0
2 2 2 2 2 2 1 1 1 0 0 0 0 0 0 0 0 0 0 0 0 0 0 0 0 0 0 0 0 0 0 0 0 0 0 0 0 0 0 0 0 0 0
2 2 3 3 3 2 2 1 1 0 0 0 0 0 0 0 0 0 0 0 0 0 0 0 0 0 0 0 0 0 0 0 0 0 0 0 0 0 0 0 0 0 0
2 2 3 3 3 3 2 1 1 0 0 0 0 0 0 0 0 0 0 0 0 0 0 0 0 0 0 0 0 0 0 0 0 0 0 0 0 0 0 0 0 0 0
2 2 3 4 3 2 2 1 0 0 0 0 0 0 0 0 0 0 0 0 0 0 0 0 0 0 0 0 0 0 0 0 0 0 0 0 0 0 0 0 0 0 0
2 3 3 3 3 2 1 0 0 0 0 0 0 0 0 0 0 0 0 0 0 0 0 0 0 0 0 0 0 0 0 0 0 0 0 0 0 0 0 0 0 0 0
2 3 3 3 2 1 0 0 0 0 0 0 0 0 0 0 0 0 0 0 0 0 0 0 0 0 0 0 0 0 0 0 0 0 0 0 0 0 0 0 0 0 0
3 3 3 2 1 1 0 0 0 0 0 0 0 0 0 0 0 0 0 0 0 0 0 0 0 0 0 0 0 0 0 0 0 0 0 0 0 0 0 0 0 0 0
Wind_Speed
5 6 9 12 14 14 14 14 14 15 15 15 15 15 15 14 13 13 12 12 11 11 11 11 11 11 11 11 11 11 10 8 8 7 7 7 7 8 9 11 11 9 11
9 8 11 13 14 15 16 15 15 15 15 14 14 14 14 13 12 12 11 11 10 11 10 10 9 10 10 11 10 10 9 8 6 4 5 5 6 6 8 10 10 7 11
11 8 11 14 15 16 16 16 15 15 15 14 14 13 13 12 11 11 11 10 10 10 10 9 8 8 9 9 9 8 8 6 5 3 4 3 3 5 8 10 10 10 10
11 7 9 14 14 16 16 16 15 16 16 14 14 13 12 12 11 10 10 10 9 9 9 8 7 7 8 8 7 7 6 5 3 3 3 2 2 5 7 9 10 10 9
9 7 10 16 14 15 16 16 15 15 15 14 13 13 12 11 10 9 10 10 9 9 8 7 6 6 6 7 6 6 4 3 3 3 4 3 2 5 7 9 10 10 9
8 7 10 15 15 15 15 15 15 15 14 13 13 12 11 10 9 9 9 9 9 8 7 6 5 5 6 6 6 5 5 3 3 3 4 5 4 5 7 8 9 9 8
8 6 8 14 15 15 15 15 14 14 13 12 12 11 10 9 9 8 8 8 8 7 6 5 4 5 5 5 5 5 4 4 3 3 4 4 4 5 6 6 7 7 8
9 7 7 14 16 15 15 15 14 13 13 12 11 10 9 8 8 8 7 8 7 7 6 4 3 3 4 4 4 4 4 4 3 3 3 3 3 4 5 5 5 6 7
7 7 6 7 11 14 14 14 13 13 12 11 10 9 8 8 8 9 8 7 7 6 5 3 1 2 2 2 3 3 2 2 3 2 3 2 3 4 5 5 5 5 5
7 7 6 6 6 7 9 14 15 13 12 12 11 11 10 9 9 9 7 7 7 6 5 3 1 1 2 3 3 3 2 2 2 2 2 3 5 6 6 6 6 7 7
9 8 7 6 6 6 6 10 12 13 12 11 9 11 9 4 4 5 7 7 7 6 5 3 1 2 3 5 6 5 2 0 1 2 2 5 7 7 7 7 7 7 7
13 13 9 8 8 7 7 6 4 5 5 5 4 5 4 3 3 4 5 8 8 6 5 3 2 2 4 3 5 5 2 1 1 2 2 6 7 7 7 6 6 6 6
14 13 12 11 9 9 6 5 3 3 3 4 5 4 3 3 2 2 1 2 2 3 1 1 3 3 3 3 3 3 3 2 1 1 2 5 6 7 7 6 6 6 6
12 14 13 13 11 10 7 6 5 4 4 4 4 5 3 2 2 2 1 1 1 1 1 1 2 3 3 4 4 5 6 4 3 2 3 5 4 5 7 7 7 7 7
14 15 14 14 13 11 8 6 7 6 6 5 4 5 5 3 3 3 2 1 1 1 1 1 2 4 5 6 7 7 8 7 7 6 4 10 9 7 6 7 7 8 7
15 15 13 14 13 11 9 8 7 6 6 5 5 5 6 4 4 3 3 2 1 1 2 3 4 5 5 5 7 7 7 6 6 6 6 7 12 12 10 9 7 7 8
14 13 13 14 12 11 10 8 6 5 5 5 4 5 5 4 4 3 2 2 3 4 5 5 6 5 5 5 6 6 5 6 6 6 6 5 6 11 13 12 11 9 7
12 12 12 13 12 11 9 7 5 4 4 4 3 4 5 4 3 3 3 3 4 4 4 5 4 5 4 4 4 4 4 4 6 7 7 7 6 7 10 15 15 15 13
13 12 12 11 11 10 8 6 4 4 4 2 3 3 3 4 5 5 5 5 6 5 5 4 4 3 3 3 3 4 4 5 5 7 8 8 7 7 7 11 16 16 16
12 11 12 10 9 8 6 4 3 4 4 3 2 4 6 6 8 8 7 7 7 6 5 4 5 4 3 2 3 5 5 5 5 6 6 6 6 8 7 8 7 9 14
12 12 12 11 9 8 6 5 4 4 3 3 4 6 9 10 10 8 7 7 6 5 3 3 3 5 4 2 2 3 3 4 5 4 4 5 6 6 6 6 5 4 5
13 12 11 11 9 8 6 4 5 6 5 4 4 7 8 10 9 8 8 6 6 5 4 2 2 2 3 4 2 2 2 2 3 3 3 4 4 3 4 4 3 3 2
11 12 10 10 9 9 9 7 6 6 5 4 5 5 6 8 9 8 7 6 6 5 4 3 3 4 3 3 4 3 2 1 2 2 2 2 2 2 2 3 3 3 3
9 8 9 10 10 10 10 10 8 5 4 4 4 4 6 8 8 7 7 7 6 5 5 4 4 3 4 3 2 3 2 2 1 2 3 2 3 3 4 4 4 5 6
7 9 10 12 12 10 9 10 9 8 6 6 6 7 6 6 6 7 8 7 6 5 5 5 4 4 3 3 2 2 2 1 1 2 4 4 4 4 5 5 5 6 7
10 11 12 13 12 10 10 9 9 11 11 10 8 7 5 4 5 6 7 6 5 5 5 5 4 5 3 3 2 2 2 2 2 2 4 6 7 6 5 5 6 6 6
Wind_Direction
170 165 174 156 144 137 132 125 119 116 113 111 112 114 117 120 122 122 123 121 118 113 108 102 97 92 88 84 83 82 82 84 93 102 104 102 103 114 127 124 120 120 122
149 154 164 154 144 140 138 133 127 122 119 116 115 116 117 119 120 122 122 121 120 115 108 101 96 90 85 82 80 80 79 78 80 99 113 108 106 113 134 132 126 126 126
140 150 155 152 147 145 142 137 133 130 127 125 122 121 121 122 123 125 127 127 126 121 116 110 105 96 90 87 85 83 80 79 81 95 104 86 106 122 137 137 136 135 133
140 142 151 151 149 147 144 140 137 136 134 132 130 129 130 131 132 135 137 138 136 131 127 123 117 105 97 92 87 82 78 79 93 122 132 144 141 133 142 144 146 147 146
137 139 156 152 150 148 146 144 142 140 139 138 137 138 137 138 139 144 149 151 149 146 142 139 129 114 101 89 77 64 51 49 88 122 153 157 146 149 148 151 154 155 154
141 144 156 154 152 150 150 149 146 143 142 142 144 145 145 146 148 152 156 159 159 158 155 148 135 115 97 83 69 49 23 34 82 130 147 155 157 162 158 162 165 164 161
145 146 155 156 155 154 153 152 149 148 146 146 150 153 153 154 155 155 156 158 161 162 162 157 136 107 87 75 63 45 27 45 95 135 149 151 162 165 164 169 169 166 168
149 147 155 161 160 159 158 156 155 153 152 153 155 157 157 157 157 157 158 163 169 174 173 170 132 91 72 62 54 38 26 44 99 137 141 142 163 154 152 150 156 161 165
151 152 156 164 165 165 162 162 162 160 159 159 160 162 163 166 168 170 171 175 179 181 181 182 129 64 39 30 28 16 12 68 104 133 151 150 172 161 160 158 155 156 157
156 165 163 162 160 162 167 172 170 167 166 167 170 174 178 182 185 186 182 186 188 192 198 205 208 334 337 343 345 331 311 88 132 158 160 184 188 185 180 178 177 174 173
174 179 175 169 164 162 167 180 176 174 174 176 179 185 185 187 189 191 191 197 200 203 211 217 236 306 344 355 346 329 315 123 207 215 202 208 204 205 201 196 194 192 190
185 188 186 181 174 169 177 174 168 169 172 174 176 185 175 170 185 193 202 206 208 207 215 223 258 357 25 7 346 352 359 319 261 254 249 235 227 225 224 220 221 218 214
187 188 191 189 183 179 179 169 165 160 163 172 180 180 164 160 177 196 190 228 223 207 180 38 38 44 30 3 356 8 14 19 356 319 302 265 259 250 250 247 249 252 251
186 193 192 191 189 188 182 177 174 173 175 179 182 173 160 160 180 195 200 195 150 127 145 78 59 50 40 31 37 41 42 43 41 39 17 351 319 291 285 276 266 266 268
190 194 193 193 193 190 185 184 185 187 186 183 177 174 169 173 187 192 194 175 158 146 139 74 67 79 74 63 56 54 49 46 47 47 36 33 31 16 343 316 300 288 284
195 195 191 193 194 190 189 189 189 190 185 179 180 180 179 182 186 188 183 155 113 99 99 92 91 92 82 74 62 53 49 44 44 46 42 35 37 36 29 14 351 330 316
196 193 191 193 191 190 190 188 185 187 180 182 183 180 183 185 190 186 160 113 87 85 91 92 87 81 78 73 64 52 47 45 48 47 44 41 39 42 42 39 34 22 0
191 190 193 195 190 189 186 180 175 172 174 179 173 174 182 181 167 144 115 97 92 87 84 88 81 75 65 72 76 55 46 49 59 59 57 52 48 43 40 45 46 44 39
191 187 190 194 185 184 178 169 163 151 151 150 150 155 150 127 112 102 92 84 81 75 65 73 58 69 62 63 86 66 51 57 57 66 62 56 52 49 45 43 45 44 41
189 187 189 191 178 169 160 145 127 96 81 77 99 113 108 99 98 98 92 84 80 74 62 62 72 58 51 32 71 71 57 58 58 57 60 58 54 53 51 47 39 34 34
189 188 188 187 174 162 160 155 134 103 73 58 70 92 100 102 102 100 98 89 88 90 98 106 89 68 39 0 81 66 46 49 58 48 49 58 54 49 49 45 39 31 19
194 188 184 181 169 164 157 131 112 109 96 78 79 84 95 103 105 105 107 107 107 109 106 99 116 105 46 20 80 86 43 14 17 24 21 47 43 32 35 28 19 10 357
194 187 178 167 157 144 130 112 101 88 81 86 90 94 97 102 100 104 110 112 113 110 106 97 107 121 116 46 44 107 115 249 318 332 331 354 356 353 338 315 306 303 290
186 160 152 143 134 129 128 126 126 126 126 120 116 109 104 100 104 110 112 111 113 115 116 109 99 114 122 110 63 51 87 143 161 320 309 303 307 293 289 287 290 284 273
131 128 125 121 118 118 117 122 119 116 116 120 119 114 103 100 104 111 114 118 121 122 120 115 113 108 107 122 125 119 102 80 131 204 279 293 287 266 267 271 274 277 276
103 110 115 116 111 110 108 110 121 131 137 139 135 124 111 102 101 110 117 117 121 123 123 124 124 123 123 125 135 148 162 183 212 212 260 289 296 290 279 269 271 277 282